Location: Waco, TX
(31.5480°N, 97.1670°W)
Time: 17:49:57
(UTC-05:00)

ISS - All Passes

Search period start: 21 October 2019 00:00
Search period end: 31 October 2019 00:00
Orbit: 411 x 421 km, 51.6° (Epoch: 21 October)

Date Brightness Start Highest point End Pass type
(mag) Time Alt. Az. Time Alt. Az. Time Alt. Az.
21 Oct - 06:44:49 10° S 06:47:07 17° SE 06:49:24 10° E visible
21 Oct - 08:20:37 10° WSW 08:23:38 31° NW 08:26:40 10° NNE daylight
21 Oct - 14:53:24 10° NNW 14:56:12 24° NE 14:58:59 10° E daylight
21 Oct - 16:30:11 10° WNW 16:32:50 22° SW 16:35:28 10° S daylight
22 Oct - 07:31:43 10° SW 07:35:02 60° NW 07:38:22 10° NE daylight
22 Oct - 14:05:28 10° N 14:07:28 15° NE 14:09:30 10° ENE daylight
22 Oct - 15:41:10 10° WNW 15:44:22 45° SW 15:47:33 10° SSE daylight
23 Oct - 06:43:09 10° SW 06:46:28 64° SE 06:49:49 10° NE visible
23 Oct - 08:21:57 10° WNW 08:23:29 13° NNW 08:25:01 10° N daylight
23 Oct - 14:52:31 10° NW 14:55:51 83° NE 14:59:09 10° SE daylight
24 Oct - 05:54:59 10° SSW 05:57:58 30° SE 06:00:58 10° ENE visible
24 Oct - 07:32:09 10° W 07:34:43 20° NW 07:37:17 10° NNE daylight
24 Oct - 14:04:04 10° NNW 14:07:14 40° NE 14:10:23 10° ESE daylight
24 Oct - 15:42:06 10° W 15:43:39 13° SW 15:45:12 10° SSW daylight
25 Oct - 05:07:26 10° SSE 05:09:31 16° SE 05:11:36 10° E visible
25 Oct - 06:42:54 10° WSW 06:46:00 34° NW 06:49:07 10° NNE visible
25 Oct - 13:15:50 10° NNW 13:18:33 22° NE 13:21:14 10° E daylight
25 Oct - 14:52:26 10° WNW 14:55:13 25° SW 14:57:58 10° S daylight
26 Oct - 05:54:01 10° SW 05:57:22 68° NW 06:00:43 10° NE visible
26 Oct - 12:27:56 10° N 12:29:46 14° NNE 12:31:36 10° ENE daylight
26 Oct - 14:03:28 10° NW 14:06:42 51° SW 14:09:56 10° SSE daylight
27 Oct - 05:05:28 10° SSW 05:08:46 56° SE 05:12:04 10° NE visible
27 Oct - 06:43:58 10° WNW 06:45:44 14° NNW 06:47:31 10° N visible
27 Oct - 13:14:48 10° NW 13:18:08 73° NE 13:21:25 10° SE daylight
28 Oct - 04:17:21 10° S 04:20:14 27° SE 04:23:08 10° ENE night (unlit)
28 Oct - 05:54:15 10° W 05:56:56 22° NW 05:59:38 10° NNE visible
28 Oct - 12:26:21 10° NNW 12:29:28 36° NE 12:32:34 10° ESE daylight
28 Oct - 14:04:03 10° W 14:05:55 14° SW 14:07:47 10° SSW daylight
29 Oct - 03:29:56 10° SSE 03:31:45 14° SE 03:33:35 10° E night (unlit)
29 Oct - 05:05:02 10° WSW 05:08:11 38° NW 05:11:22 10° NNE visible
29 Oct - 11:38:07 10° NNW 11:40:43 21° NE 11:43:18 10° E daylight
29 Oct - 13:14:31 10° WNW 13:17:26 28° SW 13:20:19 10° S daylight
30 Oct - 04:16:10 10° SW 04:19:31 78° NW 04:22:53 10° NE night (unlit)
30 Oct - 10:50:15 10° N 10:51:53 13° NNE 10:53:31 10° ENE daylight
30 Oct - 12:25:35 10° NW 12:28:52 59° SW 12:32:08 10° SSE daylight
